Tracking 32941 objects as of 15-Jan-2026
HD Live streaming from Space Station
objects crossing your sky now

SL-8 R/B

Track SL-8 R/B now!
10-day predictions


NORAD ID: 15006
Int'l Code: 1984-052J
Perigee: 1,478.4 km
Apogee: 1,688.4 km
Inclination: 74.0 °
Period: 117.7 minutes
Semi major axis: 7954 km
RCS: 6.198 m2 (large)
Launch date: May 28, 1984
Source: Commonwealth of Independent States (former USSR) (CIS)
Launch site: PLESETSK MISSILE AND SPACE COMPLEX (PKMTR)

Note: This is a ROCKET BODY
Your satellite tracking list
Your tracking list is empty




NASA's NSSDC Master Catalog

Two Line Element Set (TLE):
1 15006U 84052J   26015.09218332  .00000054  00000-0  61192-3 0  9994
2 15006  74.0126  48.2136 0132010 142.3785 248.4126 12.23744665859903
Source of the keplerian elements: AFSPC